Location: Chappe
(47.5621°N, 3.2487°E)
Time: 00:28:00
(UTC+00:00)

Daily predictions for brighter satellites

Satellite Brightness Start Highest point End
(mag) Time Altitude Azimuth Time Altitude Azimuth Time Altitude Azimuth
Cosmos 546 4.4 00:00:00 10° WNW 00:03:53 82° SSW 00:03:58 81° S
ATLAS CENTAUR R/B 3.9 00:02:29 10° NNW 00:04:05 17° NNE 00:06:20 10° ENE
Lacrosse 5 4.1 00:02:46 10° W 00:03:12 11° WSW 00:03:12 11° WSW
Cosmos 292 Rocket 4.2 00:03:39 37° WSW 00:05:18 58° WNW 00:10:06 10° NNE
STARLINK-1104 3.9 00:04:46 10° WNW 00:08:12 49° WSW 00:08:12 49° WSW
Cosmos 1655 Rocket 4.4 00:07:30 32° SW 00:10:14 56° WNW 00:16:24 10° N
S3M 4.5 00:04:29 10° NNW 00:10:20 47° W 00:12:36 33° SW
Cosmos 1726 2.5 00:07:20 10° NNW 00:10:54 48° W 00:10:54 48° W
GEOS 3 Rocket 3.8 00:07:39 23° SE 00:11:00 74° NE 00:16:19 10° NW
Cosmos 2058 Rocket 4.1 00:07:55 10° N 00:12:04 39° ENE 00:13:46 28° ESE
STARLINK-1235 4.3 00:09:10 10° NW 00:12:06 38° NNE 00:15:02 10° E
STARLINK-1187 4.4 00:09:35 10° NW 00:12:30 36° NNE 00:15:25 10° E
COSMOS 2455 3.2 00:11:40 37° SSE 00:13:29 49° ESE 00:19:16 10° NE
Meteor 1-29 3.7 00:10:25 10° NNE 00:13:32 40° E 00:13:32 40° E
SL-27 R/B 4.4 00:11:01 10° NW 00:13:10 20° W 00:13:10 20° W
STARLINK-1144 4.1 00:09:46 10° WNW 00:12:59 43° WSW 00:12:59 43° WSW
STARLINK-1191 4.5 00:10:57 10° NW 00:13:51 35° NNE 00:16:45 10° E
Cosmos 2228 3.0 00:10:24 10° N 00:14:41 76° E 00:15:32 55° SSE
STARLINK-1221 4.5 00:11:49 10° NW 00:14:43 35° NNE 00:17:38 10° E
Cosmos 2263 4.3 00:12:25 35° SW 00:14:47 70° WNW 00:20:25 10° NNE
SJ 16-02 4.3 00:13:22 10° NNE 00:15:04 12° NE 00:16:46 10° ENE
STARLINK-1222 4.5 00:12:42 10° NW 00:15:37 36° NNE 00:18:31 10° E
STARLINK-1214 4.5 00:13:37 10° NW 00:16:32 36° NNE 00:19:27 10° E
Meteor 2-15 Rocket 4.4 00:12:13 10° N 00:18:24 82° W 00:20:55 38° S
STARLINK-1103 4.3 00:14:46 10° WNW 00:17:46 38° WSW 00:17:46 38° WSW
Cosmos 1953 3.1 00:15:31 10° NNW 00:19:13 36° W 00:19:26 36° W
SL-14 R/B 4.5 00:18:39 28° ESE 00:19:19 30° E 00:22:43 10° NNE
Cosmos 1340 Rocket 3.2 00:16:58 10° NNW 00:20:51 48° W 00:21:08 47° WSW
Cosmos 1271 Rocket 4.4 00:21:40 22° W 00:22:33 24° WNW 00:25:45 10° NNW
Cosmos 1174 4.4 00:23:33 35° E 00:23:33 35° E 00:26:21 10° NE
Okean 1-7 Rocket 4.3 00:22:03 36° SE 00:23:13 44° E 00:27:30 10° NNE
Cosmos 1300 4.0 00:20:20 10° N 00:23:50 33° ENE 00:25:04 27° ESE
BREEZE M DEB (TANK) 4.1 00:26:49 19° E 00:26:49 19° E 00:27:52 10° E
Cosmos 1992 Rocket 4.3 00:25:15 35° SW 00:27:16 59° WNW 00:32:26 10° NNE
COSMOS 2487 2.3 00:23:56 10° NNW 00:27:18 78° WNW 00:27:18 78° WNW
Cosmos 1833 4.4 00:22:45 10° NW 00:28:12 52° WSW 00:29:45 40° SSW
USA 215 4.5 00:33:07 21° WSW 00:33:07 21° WSW 00:37:49 10° WNW
Cosmos 1626 2.7 00:34:31 42° ESE 00:35:02 45° E 00:38:36 10° NNE
STARLINK-60 4.4 00:36:27 29° E 00:36:27 29° E 00:38:22 10° ENE
Cosmos 1656 Rocket 3.8 00:33:51 34° SW 00:36:21 67° WNW 00:41:56 10° NNE
Cosmos 1606 Rocket 3.6 00:33:46 10° NNW 00:38:03 60° W 00:38:48 50° SW
FALCON 9 R/B 3.6 00:38:25 31° S 00:40:07 34° SSE 00:54:48 10° ESE
CZ-4 R/B 4.2 00:39:00 10° N 00:43:45 57° WNW 00:45:23 37° SW
MOZ.5/SAFIR/RUBIN 5/SL-8 4.5 00:44:16 23° SE 00:46:55 50° ENE 00:51:24 10° N
Cosmos 2297 Rocket 3.8 00:42:36 10° NNW 00:47:43 34° NE 00:52:49 10° ESE
Meteor 2-21 4.4 00:45:34 35° S 00:48:21 89° ESE 00:54:35 10° N
SL-4 R/B 2.5 00:49:12 46° SSW 00:50:16 57° SSE 00:54:57 10° ENE
NOSS 3-2 (C) 4.5 00:43:47 10° NW 00:50:56 43° WSW 00:54:30 29° SSW
NOSS 5 (C) 4.4 00:49:09 10° NW 00:52:20 84° NE 00:53:31 41° SE
PSLV R/B 4.2 00:47:56 10° N 00:52:25 51° WNW 00:53:53 36° WSW
Cosmos 1437 3.6 00:52:48 36° E 00:52:50 36° E 00:55:39 10° NNE
Cosmos 1674 3.5 00:53:21 34° W 00:53:55 36° WNW 00:57:25 10° N
SL-19 R/B 4.2 00:52:08 10° NNE 00:57:32 84° ESE 01:00:03 35° SSW
ATLAS CENTAUR R/B 1.3 00:56:56 48° SSW 00:58:05 82° SE 01:02:15 10° NE
Cosmos 1777 Rocket 3.9 00:54:21 10° NNW 00:59:34 74° WSW 01:01:54 33° S
Timation 2 Rocket 3.9 00:53:26 10° NNW 00:59:52 90° ENE 01:04:30 19° SSE
NOSS 3-4 (A) 3.6 00:57:31 26° SW 01:01:00 71° NW 01:07:25 10° NE
SL-16 R/B 2.9 00:56:01 16° SSE 01:01:02 64° ENE 01:07:08 10° N
NOSS 3-4 (C) 3.6 00:57:37 27° SW 01:01:05 71° NW 01:07:32 10° NE
BREEZE-M R/B 3.8 01:01:07 35° SSE 01:01:14 35° SSE 01:04:20 10° E
Spot 1 4.2 01:00:54 40° S 01:02:29 70° WSW 01:07:21 10° NNW
STARLINK-29 4.0 01:04:34 34° ESE 01:04:34 34° ESE 01:06:59 10° ENE
Cosmos 1455 4.4 01:03:11 10° NNE 01:06:10 22° ENE 01:09:07 10° ESE
ATLAS 3B R/B 2.7 01:00:15 10° NW 01:06:59 67° SW 01:12:43 16° SSE
CENTAUR R/B 3.7 01:03:14 10° NW 01:10:42 40° WSW 01:14:47 26° SSW
BREEZE-M DEB (TANK) 1.2 01:12:38 74° ESE 01:12:38 74° ESE 01:14:45 10° ENE
STARLINK-1206 4.5 01:09:01 10° WNW 01:13:05 51° NNE 01:17:08 10° E
Meteor 2-21 Rocket 4.4 01:11:40 31° SSW 01:14:47 76° W 01:21:00 10° N
Cosmos 1867 4.1 01:10:17 10° NW 01:15:19 39° WSW 01:16:44 33° SSW
Cosmos 1892 Rocket 4.2 01:14:51 33° WSW 01:16:16 44° WNW 01:20:30 10° N
Cosmos 1745 Rocket 4.0 01:12:45 27° S 01:16:16 77° E 01:22:25 10° NNE
STARLINK-1205 4.4 01:14:00 10° WNW 01:18:05 53° NNE 01:22:09 10° E
RESURS DK-1 2.3 01:19:17 42° SSW 01:20:37 83° ESE 01:24:47 10° NNE
STARLINK-1218 4.3 01:18:58 10° WNW 01:23:04 55° NNE 01:27:09 10° E
Cosmos 2227 Rocket 3.0 01:17:58 10° NNW 01:23:32 51° ENE 01:29:02 10° SE
Cosmos 1356 Rocket 3.3 01:19:49 10° NNW 01:23:58 87° WSW 01:25:49 33° S
Meteor 1-24 Rocket 3.8 01:22:03 30° SW 01:24:30 57° WNW 01:29:50 10° N
Cosmos 2369 Rocket 4.2 01:21:49 10° W 01:25:58 20° NW 01:30:07 10° N
CZ-2D R/B 2.3 01:22:00 10° NNE 01:27:16 67° ESE 01:30:15 26° S
Helios 1B rocket 4.3 01:24:20 10° NNW 01:27:27 21° WNW 01:29:11 16° W
STARLINK-1254 4.2 01:23:58 10° WNW 01:28:04 58° NNE 01:32:10 10° E
ADEOS II 3.6 01:25:12 10° NE 01:29:47 29° E 01:34:07 11° SSE
ATLAS 2AS CENTAUR R/B 3.6 01:23:17 15° WSW 01:30:00 56° NW 01:37:45 10° NE
IKONOS-2 4.4 01:29:56 28° SSE 01:32:12 85° WSW 01:36:31 10° NNW
CZ-4C R/B 3.5 01:30:46 34° S 01:32:29 66° W 01:36:49 10° NNW
STARLINK-1231 4.2 01:28:58 10° WNW 01:33:04 61° NNE 01:37:11 10° ESE
STARLINK-1228 3.0 01:31:33 10° WNW 01:34:51 59° SSW 01:38:09 10° SE
STARLINK-1234 2.8 01:32:59 10° WNW 01:36:04 59° SSW 01:37:02 37° SSE
Resurs 1-4 Rocket 2.1 01:31:43 10° NNE 01:37:03 83° ESE 01:40:11 25° S
STARLINK-1212 2.7 01:34:20 10° WNW 01:37:27 76° SSW 01:40:32 10° SE
STARLINK-1105 2.6 01:34:48 10° WNW 01:37:54 75° SSW 01:40:59 10° SE
STARLINK-1232 4.1 01:33:57 10° WNW 01:38:04 64° NNE 01:42:12 10° ESE
STARLINK-1209 2.9 01:35:15 10° WNW 01:38:21 53° SW 01:38:43 49° S
STARLINK-1247 2.7 01:35:43 10° WNW 01:38:50 74° SSW 01:41:56 10° SE
STARLINK-1227 2.6 01:36:11 10° WNW 01:39:16 73° SSW 01:42:21 10° SE
USA 81 4.2 01:36:19 22° S 01:39:46 72° E 01:45:03 10° N
STARLINK-1226 2.7 01:37:02 10° WNW 01:40:09 72° SSW 01:43:15 10° SE
STARLINK-52 2.9 01:39:41 49° SSW 01:40:21 67° SSE 01:43:32 10° ENE
STARLINK-1215 2.7 01:37:58 10° WNW 01:41:05 71° SSW 01:44:11 10° SE
ARIANE 5 R/B 4.4 01:37:49 10° NE 01:41:49 23° E 01:45:46 10° SE
Cosmos 1758 Rocket 4.4 01:39:23 18° SSE 01:42:14 45° E 01:46:25 10° NNE
STARLINK-1217 2.7 01:39:44 10° WNW 01:42:51 69° SSW 01:45:56 10° SE
STARLINK-1208 4.0 01:38:54 10° WNW 01:43:02 67° NNE 01:47:10 10° ESE
STARLINK-1229 2.7 01:40:40 10° WNW 01:43:47 68° SSW 01:46:52 10° SE
NPP 3.7 01:39:03 10° NNE 01:44:29 82° ESE 01:47:57 23° S
STARLINK-1270 2.7 01:41:32 10° WNW 01:44:38 66° SSW 01:47:44 10° SE
STARLINK-1189 2.7 01:43:22 10° WNW 01:46:28 64° SSW 01:49:33 10° SE
STARLINK-1188 2.7 01:44:15 10° WNW 01:47:21 63° SSW 01:50:27 10° SE
STARLINK-1235 2.9 01:44:58 10° WNW 01:47:59 49° SW 01:50:59 10° SE
STARLINK-1271 3.9 01:43:54 10° WNW 01:48:03 71° NNE 01:52:11 10° ESE
STARLINK-1187 2.8 01:45:23 10° WNW 01:48:25 55° SW 01:51:28 10° SE
Cosmos 1898 Rocket 4.0 01:43:32 10° NNW 01:48:53 64° ENE 01:54:08 10° SSE
STARLINK-1191 2.8 01:46:44 10° WNW 01:49:48 60° SSW 01:52:51 10° SE
Starlink 7 placeholder 3.4 01:49:43 27° NNW 01:49:56 28° NNW 01:51:44 10° NE
Lacrosse 4 Rocket 3.8 01:46:33 10° NNW 01:50:19 27° NE 01:53:59 10° ESE
STARLINK-1221 2.8 01:47:36 10° WNW 01:50:40 59° SSW 01:53:44 10° SE
Meteor 1-21 Rocket 4.3 01:46:49 21° S 01:50:41 76° E 01:56:22 10° NNE
STARLINK-1222 2.8 01:48:30 10° WNW 01:51:34 58° SSW 01:54:37 10° SE
Cosmos 1656 4.1 01:48:20 21° S 01:52:06 57° ESE 01:57:37 10° NE
STARLINK-1214 2.8 01:49:25 10° WNW 01:52:28 57° SSW 01:55:31 10° SE
STARLINK-1154 3.8 01:48:53 10° WNW 01:53:02 75° NNE 01:57:11 10° ESE
CZ-4C R/B 3.5 01:50:43 14° SSE 01:54:04 28° ESE 01:58:53 10° NE
SJ 16-02 1.4 01:50:00 10° NNW 01:54:27 79° ENE 01:58:53 10° SSE
Cosmos 2084 3.5 01:52:18 28° SW 01:54:40 85° SE 01:59:09 10° NE
Cosmos 468 Rocket 4.4 01:52:22 19° S 01:55:52 55° ESE 02:00:53 10° NNE
STARLINK-1197 3.7 01:53:51 10° WNW 01:58:01 79° NNE 02:02:10 10° ESE
Cosmos 1937 Rocket 4.1 01:53:57 10° NNW 01:59:07 57° ENE 02:04:18 10° SE
Cosmos 1300 4.3 01:56:29 10° NW 01:59:16 19° W 02:00:00 18° WSW
COSMOS 2455 3.9 01:54:47 14° WSW 01:59:35 38° NW 02:05:13 10° NNE
Meteor 2-10 Rocket 3.5 01:56:07 10° NNW 02:01:29 81° W 02:06:00 14° S
Cosmos 921 Rocket 3.9 02:00:21 21° WSW 02:02:34 36° WNW 02:06:36 10° N
STARLINK-1198 3.6 01:58:49 10° WNW 02:02:58 83° NNE 02:07:08 10° ESE
Cosmos 1709 Rocket 3.9 02:01:47 19° SSW 02:06:23 81° W 02:12:33 10° N
STARLINK-1199 3.6 02:03:50 10° WNW 02:08:00 88° NE 02:12:09 10° ESE
Cosmos 1626 Rocket 4.4 02:06:42 22° SW 02:08:53 36° WNW 02:12:55 10° N
Cosmos 1626 4.3 02:09:03 12° W 02:10:33 15° WNW 02:12:43 10° NNW
STARLINK-60 4.0 02:08:52 13° W 02:11:28 42° NNW 02:14:33 10° ENE
STARLINK-1210 3.5 02:08:47 10° WNW 02:12:57 87° SSW 02:17:06 10° ESE
STARLINK-1320 3.3 02:14:52 27° SSW 02:16:10 47° SE 02:19:11 10° ENE
Cosmos 2219 3.4 02:10:56 10° NW 02:16:25 50° WSW 02:21:49 10° S
STARLINK-1322 3.3 02:15:11 27° SSW 02:16:31 47° SE 02:19:32 10° ENE
STARLINK-1324 3.3 02:15:32 27° SSW 02:16:52 47° SE 02:19:53 10° ENE
STARLINK-1294 3.3 02:15:47 27° SSW 02:17:09 48° SE 02:20:11 10° ENE
STARLINK-1261 3.3 02:16:09 27° SSW 02:17:31 48° SE 02:20:33 10° ENE
STARLINK-1325 3.3 02:16:30 27° SSW 02:17:52 48° SE 02:20:54 10° ENE
STARLINK-1219 3.5 02:13:46 10° WNW 02:17:56 82° SSW 02:22:05 10° ESE
STARLINK-1333 3.3 02:16:48 27° SSW 02:18:11 49° SE 02:21:13 10° ENE
STARLINK-1334 3.3 02:17:07 26° SSW 02:18:31 49° SE 02:21:33 10° ENE
STARLINK-1326 3.2 02:17:28 26° SSW 02:18:52 49° SE 02:21:54 10° ENE
STARLINK-1323 3.2 02:17:47 26° SSW 02:19:12 50° SE 02:22:15 10° ENE
STARLINK-1338 3.6 02:17:39 24° SSW 02:19:26 48° SE 02:22:48 10° ENE
Cosmos 1980 Rocket 3.7 02:14:45 10° SSE 02:19:29 29° ESE 02:24:17 10° NE
STARLINK-1349 3.2 02:18:06 26° SSW 02:19:32 50° SE 02:22:34 10° ENE
STARLINK-1336 3.2 02:18:28 26° SSW 02:19:54 50° SE 02:22:57 10° ENE
STARLINK-1331 3.2 02:18:45 26° SSW 02:20:12 51° SE 02:23:15 10° ENE
STARLINK-1344 3.2 02:19:05 26° SSW 02:20:33 51° SE 02:23:35 10° ENE
STARLINK-1343 3.2 02:19:25 26° SSW 02:20:53 51° SSE 02:23:56 10° ENE
STARLINK-1346 3.2 02:19:43 25° SSW 02:21:14 52° SE 02:24:20 10° ENE
STARLINK-1328 3.2 02:20:05 25° SSW 02:21:35 52° SE 02:24:38 10° ENE
STARLINK-1354 3.2 02:20:22 25° SSW 02:21:54 52° SE 02:24:56 10° ENE
STARLINK-1347 3.2 02:20:44 25° SSW 02:22:15 53° SE 02:25:18 10° ENE
Cosmos 1328 3.8 02:19:19 17° S 02:22:22 86° E 02:26:23 10° N
CRYOSAT 2 4.5 02:17:32 10° N 02:22:28 80° E 02:27:17 10° S
STARLINK-1357 3.1 02:21:01 25° SSW 02:22:34 53° SE 02:25:38 10° ENE
STARLINK-1211 3.5 02:18:44 10° WNW 02:22:54 77° SSW 02:27:02 10° SE
STARLINK-1335 3.1 02:21:22 25° SW 02:22:54 53° SSE 02:25:58 10° ENE
STARLINK-1327 3.1 02:21:41 25° SW 02:23:14 54° SSE 02:26:18 10° ENE
STARLINK-1371 3.5 02:21:31 23° SSW 02:23:27 52° SE 02:26:52 10° ENE
STARLINK-1340 3.1 02:22:01 25° SW 02:23:36 54° SSE 02:26:40 10° ENE
STARLINK-1356 3.1 02:22:21 24° SW 02:23:56 55° SSE 02:27:00 10° ENE
STARLINK-1345 3.1 02:22:41 24° SW 02:24:16 55° SSE 02:27:21 10° ENE
STARLINK-1355 3.1 02:22:59 24° SW 02:24:36 55° SSE 02:27:40 10° ENE
ERS-2 2.9 02:21:16 10° SSE 02:24:50 54° ENE 02:28:26 10° N
STARLINK-1321 3.1 02:23:18 24° SW 02:24:56 56° SE 02:28:00 10° ENE
STARLINK-1358 3.1 02:23:39 24° SW 02:25:17 56° SSE 02:28:21 10° ENE
STARLINK-1341 3.5 02:23:29 22° SW 02:25:30 54° SE 02:28:55 10° ENE
STARLINK-1332 3.1 02:23:57 24° SW 02:25:36 56° SSE 02:28:41 10° ENE
STARLINK-1348 3.1 02:24:18 24° SW 02:25:58 57° SSE 02:29:02 10° ENE
STARLINK-1330 3.1 02:24:36 23° SW 02:26:17 57° SSE 02:29:21 10° ENE
STARLINK-1363 3.0 02:24:56 23° SW 02:26:37 58° SSE 02:29:42 10° ENE
STARLINK-1337 3.0 02:25:15 23° SW 02:26:57 58° SSE 02:30:02 10° ENE
STARLINK-1342 3.0 02:25:35 23° SW 02:27:18 58° SSE 02:30:23 10° ENE
STARLINK-1374 3.4 02:25:26 21° SW 02:27:32 56° SE 02:30:59 10° ENE
STARLINK-1364 3.0 02:25:55 23° SW 02:27:38 59° SSE 02:30:44 10° ENE
STARLINK-1245 3.5 02:23:44 10° WNW 02:27:53 72° SSW 02:32:00 10° SE
STARLINK-1376 3.0 02:26:15 23° SW 02:27:59 59° SSE 02:31:04 10° ENE
IRS-1C 4.3 02:22:52 10° NNE 02:28:14 76° ESE 02:33:25 11° S
STARLINK-1360 3.0 02:26:30 23° SW 02:28:15 60° SSE 02:31:21 10° ENE
AQUA 4.3 02:24:03 10° N 02:28:38 49° WNW 02:32:11 16° SW
STARLINK-1361 3.0 02:26:56 22° SW 02:28:42 60° SSE 02:31:47 10° ENE
STARLINK-1367 3.0 02:27:10 22° SW 02:28:58 60° SSE 02:32:05 10° ENE
STARLINK-1366 3.0 02:27:33 22° SW 02:29:20 61° SSE 02:32:25 10° ENE
STARLINK-1339 3.4 02:27:27 21° SW 02:29:37 58° SE 02:33:04 10° ENE
SL-4 R/B 2.8 02:25:19 10° W 02:30:06 60° NNW 02:34:42 10° ENE
CZ-4B R/B 4.0 02:26:14 10° N 02:31:09 47° WNW 02:35:13 15° SW
STARLINK-1377 3.3 02:29:28 20° SW 02:31:42 60° SSE 02:35:11 10° ENE
Cosmos 2297 Rocket 2.5 02:26:33 10° NW 02:31:57 46° WSW 02:37:17 10° S
STARLINK-1233 3.5 02:28:43 10° WNW 02:32:50 67° SSW 02:36:57 10° SE
STARLINK-1353 3.3 02:31:17 19° SW 02:33:34 62° SSE 02:37:01 10° ENE
STARLINK-1375 3.3 02:33:04 19° SW 02:35:25 64° SSE 02:38:52 10° ENE
Cosmos 2082 3.7 02:30:04 10° NNW 02:35:45 82° WSW 02:41:23 10° SSE
ATLAS CENTAUR R/B 3.5 02:34:19 10° W 02:37:27 19° NW 02:40:27 10° NNE
Cosmos 540 Rocket 4.1 02:32:35 10° S 02:37:34 54° ESE 02:42:34 10° NNE
Cosmos 990 Rocket 4.2 02:32:41 10° NNW 02:37:47 50° WSW 02:42:49 10° S
STARLINK-1350 3.2 02:35:22 18° SW 02:37:49 67° SSE 02:41:17 10° ENE
STARLINK-1204 3.6 02:33:43 10° WNW 02:37:49 62° SW 02:41:55 10° SE
CBERS-1 4.2 02:33:00 10° N 02:38:03 59° WNW 02:42:29 13° SSW
FALCON 9 DEB 3.4 02:35:24 14° WSW 02:38:18 66° NNW 02:41:46 10° ENE
STARLINK-1241 4.4 02:35:57 10° WNW 02:40:02 54° NNE 02:44:07 10° E
STARLINK-29 3.8 02:37:00 10° W 02:40:05 45° NNW 02:43:11 10° ENE
OE (NEXTSAT) 4.3 02:36:54 11° W 02:40:10 68° S 02:43:38 10° E
STARLINK-1352 3.2 02:37:39 17° SW 02:40:14 70° SSE 02:43:45 10° ENE
Cosmos 1825 Rocket 3.8 02:38:21 15° SSW 02:41:48 52° WNW 02:46:03 10° N
Cosmos 1455 3.2 02:38:32 10° NNW 02:41:48 29° W 02:44:16 15° SW
Cosmos 2278 4.3 02:36:31 10° S 02:41:57 52° ESE 02:47:27 10° NE
STARLINK-1368 3.2 02:39:45 16° SW 02:42:24 72° SSE 02:45:56 10° ENE
CZ-2D R/B 4.2 02:38:32 10° NNE 02:42:33 51° E 02:46:38 10° S
STARLINK-1238 3.6 02:38:41 10° WNW 02:42:46 58° SW 02:46:50 10° SE
Meteor 1-11 4.3 02:38:39 10° S 02:44:17 82° E 02:49:55 10° NNE
STARLINK-1369 3.2 02:41:37 16° SW 02:44:19 75° SSE 02:47:49 10° ENE
USA 234 4.4 02:38:43 10° ENE 02:44:30 32° SE 02:50:14 10° S
Meteor 1-28 Rocket 3.2 02:40:52 10° SSE 02:44:39 86° ENE 02:48:26 10° NNW
STARLINK-1239 4.3 02:40:56 10° WNW 02:45:02 57° NNE 02:49:07 10° E
SL-16 R/B 3.7 02:41:06 13° SW 02:45:07 24° W 02:50:02 10° NW
ATLAS CENTAUR R/B 2.8 02:43:07 10° WNW 02:46:16 37° SW 02:53:04 10° SSE
STARLINK-1372 3.2 02:43:57 15° SW 02:46:47 78° SSE 02:50:19 10° ENE
Cosmos 2263 Rocket 4.0 02:42:23 10° NNW 02:47:34 36° NE 02:52:40 10° ESE
Cosmos 2074 Rocket 4.1 02:41:25 10° S 02:47:43 85° E 02:54:03 10° N
STARLINK-1201 3.7 02:43:42 10° WNW 02:47:45 54° SW 02:51:47 10° SE
STARLINK-1378 3.2 02:46:05 14° SW 02:49:01 80° SSE 02:52:33 10° ENE
Cosmos 372 Rocket 4.3 02:44:22 10° NNW 02:49:29 69° ENE 02:54:36 10° SSE
STARLINK-1329 3.2 02:46:35 14° WSW 02:49:32 81° SSE 02:53:05 10° ENE
Cosmos 841 Rocket 3.7 02:44:36 10° SSW 02:49:50 74° ESE 02:55:04 10° NNE
GP-B 4.0 02:46:02 10° NNW 02:50:01 33° W 02:53:37 12° SW
STARLINK-1240 4.3 02:45:55 10° WNW 02:50:02 60° NNE 02:54:08 10° ESE
STARLINK-1365 3.1 02:47:17 14° WSW 02:50:15 85° SSE 02:53:48 10° ENE
IRS-1D 4.1 02:45:47 10° N 02:50:55 48° WNW 02:55:45 11° SW
STARLINK-1379 3.2 02:48:13 14° WSW 02:51:13 83° SSE 02:54:47 10° ENE
STARLINK-1362 3.2 02:48:47 13° WSW 02:51:49 84° SSE 02:55:23 10° ENE
STARLINK-1206 3.8 02:48:41 10° WNW 02:52:42 50° SW 02:56:43 10° SE
Cosmos-2242 3.7 02:49:30 10° NNW 02:53:24 34° W 02:57:14 10° SSW
STARLINK-1373 3.2 02:50:59 13° WSW 02:54:07 86° SSE 02:57:42 10° ENE
Cosmos 1400 Rocket 2.8 02:50:33 10° NNW 02:54:40 73° W 02:58:47 10° S
COBE Rocket 3.9 02:49:47 10° S 02:54:42 76° W 02:59:47 10° NNW
STARLINK-1216 4.2 02:50:54 10° WNW 02:55:02 63° NNE 02:59:08 10° ESE
Cosmos 2221 3.3 02:51:11 10° N 02:55:26 55° ENE 02:59:43 10° SSE
STARLINK-1390 3.2 02:52:59 12° WSW 02:56:11 89° SSE 02:59:44 10° ENE
NOSS 7 (E) 4.3 02:53:04 13° SW 02:56:15 84° SE 02:59:22 10° NE
ATLAS 3B R/B 4.3 02:53:14 10° WNW 02:56:31 14° WSW 02:59:51 10° SW
STARLINK-1205 3.9 02:53:41 10° WNW 02:57:40 46° SW 03:01:38 10° SE
Cosmos 2184 Rocket 4.0 02:53:03 10° S 02:59:15 83° W 03:05:27 10° N
STARLINK-1237 4.1 02:55:53 10° WNW 03:00:01 66° NNE 03:04:09 10° ESE
SL-08 R/B 3.6 02:55:44 10° S 03:00:15 46° W 03:04:44 10° NNW
CZ-4C R/B 3.1 02:57:01 10° SSE 03:00:35 84° E 03:04:15 10° NNW
STARLINK-1218 4.0 02:58:40 10° WNW 03:02:36 42° SW 03:06:31 10° SSE
STARLINK-1202 4.0 03:00:52 10° WNW 03:05:01 69° NNE 03:09:09 10° ESE
Cosmos 1703 4.4 03:02:09 11° SW 03:05:30 29° WNW 03:09:00 10° N
CZ-2D R/B 3.7 03:03:00 10° NNW 03:06:50 21° WNW 03:10:37 10° WSW
Cosmos 2227 Rocket 3.1 03:02:29 10° NW 03:07:19 29° WSW 03:12:06 10° SSW
STARLINK-1254 4.1 03:03:41 10° WNW 03:07:34 39° SW 03:11:26 10° SSE
Cosmos 1763 Rocket 4.0 03:03:49 10° SW 03:08:43 45° WNW 03:13:37 10° NNE
ADEOS II 2.7 03:04:40 10° N 03:09:37 43° WNW 03:14:33 10° SW
Cosmos 1697 Rocket 2.8 03:05:09 10° SW 03:10:47 68° WNW 03:16:28 10° NNE
Cosmos 2150 Rocket 4.2 03:06:18 10° NNW 03:11:32 80° ENE 03:16:41 10° SSE
STARLINK-1231 4.2 03:08:43 10° WNW 03:12:33 36° SW 03:16:21 10° SSE
Cosmos 1315 Rocket 3.2 03:10:48 10° N 03:14:43 68° ENE 03:18:37 10° SSE
STARLINK-1246 3.8 03:10:49 10° WNW 03:14:59 77° NNE 03:19:08 10° ESE
Resurs 1-4 Rocket 3.9 03:12:50 10° NNW 03:16:13 18° WNW 03:19:37 10° W
CZ-2C R/B 2.8 03:12:49 10° NNE 03:16:32 77° ESE 03:20:14 10° S
STARLINK-52 4.4 03:13:39 10° W 03:16:39 35° NNW 03:19:39 10° ENE
SL-16 R/B 4.2 03:12:23 10° SSE 03:16:56 26° ESE 03:21:32 10° NE
MSX 4.5 03:11:45 10° NNE 03:17:28 59° E 03:23:07 10° S
STARLINK-1232 4.3 03:13:44 10° WNW 03:17:30 34° SW 03:21:14 10° SSE
STARLINK-1224 3.8 03:15:48 10° WNW 03:19:58 82° NNE 03:24:07 10° ESE
H-2A R/B 2.3 03:16:54 10° S 03:21:05 50° W 03:25:24 10° NNW
ARIANE 5 R/B 2.9 03:16:19 10° N 03:21:14 51° WNW 03:26:04 10° SW
